TimeCST,TemperatureF,Dew PointF,Humidity,Sea Level PressureIn,VisibilityMPH,Wind Direction,Wind SpeedMPH,Gust SpeedMPH,PrecipitationIn,Events,Conditions,WindDirDegrees,DateUTC
12:54 AM,33.1,28.0,82,30.14,10.0,East,5.8,-,N/A,,Clear,90,2013-02-06 06:54:00
1:54 AM,32.0,26.6,80,30.13,10.0,East,6.9,-,N/A,,Clear,90,2013-02-06 07:54:00
2:54 AM,30.9,27.0,85,30.15,10.0,SE,5.8,-,N/A,,Clear,140,2013-02-06 08:54:00
3:54 AM,32.0,28.0,85,30.15,10.0,SE,6.9,-,N/A,,Clear,130,2013-02-06 09:54:00
4:54 AM,30.0,26.1,85,30.16,10.0,SE,6.9,-,N/A,,Clear,130,2013-02-06 10:54:00
5:54 AM,28.9,25.0,85,30.17,10.0,SSE,8.1,-,N/A,,Clear,160,2013-02-06 11:54:00
6:54 AM,30.0,26.1,85,30.17,9.0,SE,6.9,-,N/A,,Clear,140,2013-02-06 12:54:00
7:54 AM,30.9,28.0,89,30.18,8.0,SSE,9.2,-,N/A,,Clear,160,2013-02-06 13:54:00
8:54 AM,36.0,30.0,79,30.20,10.0,SSE,10.4,-,N/A,,Clear,160,2013-02-06 14:54:00
9:54 AM,42.1,30.9,65,30.19,10.0,SSE,17.3,-,N/A,,Clear,150,2013-02-06 15:54:00
10:54 AM,46.9,30.9,54,30.17,10.0,SE,11.5,-,N/A,,Clear,130,2013-02-06 16:54:00
11:54 AM,51.1,30.0,44,30.14,10.0,SE,11.5,-,N/A,,Clear,140,2013-02-06 17:54:00
12:54 PM,55.0,28.9,37,30.10,10.0,SE,8.1,-,N/A,,Clear,130,2013-02-06 18:54:00
1:54 PM,57.9,28.0,32,30.07,10.0,SE,12.7,-,N/A,,Clear,140,2013-02-06 19:54:00
2:54 PM,59.0,26.1,28,30.05,10.0,SSE,13.8,-,N/A,,Clear,150,2013-02-06 20:54:00
3:54 PM,59.0,25.0,27,30.01,10.0,SE,13.8,-,N/A,,Clear,140,2013-02-06 21:54:00
4:54 PM,57.0,25.0,29,30.01,10.0,SSE,12.7,-,N/A,,Clear,150,2013-02-06 22:54:00
5:54 PM,54.0,27.0,35,30.01,10.0,SSE,13.8,-,N/A,,Clear,150,2013-02-06 23:54:00
6:54 PM,51.1,28.0,41,30.00,10.0,SE,12.7,-,N/A,,Scattered Clouds,140,2013-02-07 00:54:00
7:54 PM,51.1,27.0,39,30.00,10.0,SSE,17.3,-,N/A,,Clear,150,2013-02-07 01:54:00
8:54 PM,50.0,28.0,43,30.01,10.0,SSE,15.0,-,N/A,,Clear,160,2013-02-07 02:54:00
9:54 PM,48.0,28.0,46,30.01,10.0,SSE,15.0,-,N/A,,Clear,160,2013-02-07 03:54:00
10:54 PM,48.0,28.0,46,30.00,10.0,SSE,15.0,-,N/A,,Scattered Clouds,160,2013-02-07 04:54:00
11:54 PM,46.9,30.0,52,29.98,10.0,SSE,13.8,-,N/A,,Mostly Cloudy,160,2013-02-07 05:54:00